Location: Napier
(39.4830°S, 176.9170°E)
Time: 03:03:11
(UTC+13:00)

CZ-4B DEB - Pass Details

Date: 24 January 2019
Orbit: 455 x 459 km, 97.4° (Epoch: 21 February)

Event Time Altitude Azimuth Distance (km) Brightness Sun altitude
Rises 22:49:44 0° 169° (S) 2,520 8.8 -21.1°
Reaches altitude 10° 22:51:48 10° 169° (S) 1,634 7.7 -21.3°
Enters shadow 22:55:08 79° 194° (SSW) 479 4.5 -21.7°
